Year,Month,Day,Hour,Minute,Value (Times are PST for temperature in C)
2021,06,24,00,00,15.80
2021,06,24,00,01,15.80
2021,06,24,00,02,15.80
2021,06,24,00,03,15.80
2021,06,24,00,04,15.70
2021,06,24,00,05,15.70
2021,06,24,00,06,15.70
2021,06,24,00,07,15.70
2021,06,24,00,08,15.70
2021,06,24,00,09,15.70
2021,06,24,00,10,15.70
2021,06,24,00,11,15.70
2021,06,24,00,12,15.70
2021,06,24,00,13,15.70
2021,06,24,00,14,15.70
2021,06,24,00,15,15.70
2021,06,24,00,16,15.70
2021,06,24,00,17,15.60
2021,06,24,00,18,15.60
2021,06,24,00,19,15.60
2021,06,24,00,20,15.60
2021,06,24,00,21,15.60
2021,06,24,00,22,15.60
2021,06,24,00,23,15.60
2021,06,24,00,24,15.60
2021,06,24,00,25,15.60
2021,06,24,00,26,15.60
2021,06,24,00,27,15.50
2021,06,24,00,28,15.50
2021,06,24,00,29,15.50
2021,06,24,00,30,15.50
2021,06,24,00,31,15.40
2021,06,24,00,32,15.40
2021,06,24,00,33,15.40
2021,06,24,00,34,15.40
2021,06,24,00,35,15.40
2021,06,24,00,36,15.40
2021,06,24,00,37,15.30
2021,06,24,00,38,15.30
2021,06,24,00,39,15.30
2021,06,24,00,40,15.30
2021,06,24,00,41,15.30
2021,06,24,00,42,15.30
2021,06,24,00,43,15.30
2021,06,24,00,44,15.30
2021,06,24,00,45,15.30
2021,06,24,00,46,15.30
2021,06,24,00,47,15.30
2021,06,24,00,48,15.20
2021,06,24,00,49,15.20
2021,06,24,00,50,15.20
2021,06,24,00,51,15.20
2021,06,24,00,52,15.20
2021,06,24,00,53,15.20
2021,06,24,00,54,15.20
2021,06,24,00,55,15.20
2021,06,24,00,56,15.20
2021,06,24,00,57,15.20
2021,06,24,00,58,15.10
2021,06,24,00,59,15.10
2021,06,24,01,00,15.10
2021,06,24,01,01,15.10
2021,06,24,01,02,15.10
2021,06,24,01,03,15.10
2021,06,24,01,04,15.00
2021,06,24,01,05,15.00
2021,06,24,01,06,15.00
2021,06,24,01,07,15.00
2021,06,24,01,08,15.00
2021,06,24,01,09,14.90
2021,06,24,01,10,14.90
2021,06,24,01,11,14.90
2021,06,24,01,12,14.90
2021,06,24,01,13,14.90
2021,06,24,01,14,14.90
2021,06,24,01,15,14.90
2021,06,24,01,16,14.90
2021,06,24,01,17,14.80
2021,06,24,01,18,14.80
2021,06,24,01,19,14.80
2021,06,24,01,20,14.80
2021,06,24,01,21,14.80
2021,06,24,01,22,14.80
2021,06,24,01,23,14.80
2021,06,24,01,24,14.80
2021,06,24,01,25,14.80
2021,06,24,01,26,14.80
2021,06,24,01,27,14.80
2021,06,24,01,28,14.70
2021,06,24,01,29,14.70
2021,06,24,01,30,14.70
2021,06,24,01,31,14.70
2021,06,24,01,32,14.70
2021,06,24,01,33,14.70
2021,06,24,01,34,14.70
2021,06,24,01,35,14.70
2021,06,24,01,36,14.70
2021,06,24,01,37,14.70
2021,06,24,01,38,14.70
2021,06,24,01,39,14.70
2021,06,24,01,40,14.70
2021,06,24,01,41,14.70
2021,06,24,01,42,14.60
2021,06,24,01,43,14.60
2021,06,24,01,44,14.60
2021,06,24,01,45,14.60
2021,06,24,01,46,14.60
2021,06,24,01,47,14.60
2021,06,24,01,48,14.60
2021,06,24,01,49,14.60
2021,06,24,01,50,14.60
2021,06,24,01,51,14.60
2021,06,24,01,52,14.50
2021,06,24,01,53,14.50
2021,06,24,01,54,14.50
2021,06,24,01,55,14.50
2021,06,24,01,56,14.50
2021,06,24,01,57,14.50
2021,06,24,01,58,14.50
2021,06,24,01,59,14.50
2021,06,24,02,00,14.50
2021,06,24,02,01,14.50
2021,06,24,02,02,14.50
2021,06,24,02,03,14.50
2021,06,24,02,04,14.50
2021,06,24,02,05,14.50
2021,06,24,02,06,14.50
2021,06,24,02,07,14.50
2021,06,24,02,08,14.50
2021,06,24,02,09,14.50
2021,06,24,02,10,14.50
2021,06,24,02,11,14.50
2021,06,24,02,12,14.50
2021,06,24,02,13,14.50
2021,06,24,02,14,14.50
2021,06,24,02,15,14.50
2021,06,24,02,16,14.50
2021,06,24,02,17,14.50
2021,06,24,02,18,14.50
2021,06,24,02,19,14.50
2021,06,24,02,20,14.40
2021,06,24,02,21,14.40
2021,06,24,02,22,14.40
2021,06,24,02,23,14.40
2021,06,24,02,24,14.40
2021,06,24,02,25,14.40
2021,06,24,02,26,14.40
2021,06,24,02,27,14.40
2021,06,24,02,28,14.40
2021,06,24,02,29,14.40
2021,06,24,02,30,14.40
2021,06,24,02,31,14.40
2021,06,24,02,32,14.40
2021,06,24,02,33,14.40
2021,06,24,02,34,14.30
2021,06,24,02,35,14.30
2021,06,24,02,36,14.30
2021,06,24,02,37,14.30
2021,06,24,02,38,14.30
2021,06,24,02,39,14.30
2021,06,24,02,40,14.30
2021,06,24,02,41,14.30
2021,06,24,02,42,14.30
2021,06,24,02,43,14.30
2021,06,24,02,44,14.30
2021,06,24,02,45,14.30
2021,06,24,02,46,14.30
2021,06,24,02,47,14.30
2021,06,24,02,48,14.30
2021,06,24,02,49,14.30
2021,06,24,02,50,14.30
2021,06,24,02,51,14.30
2021,06,24,02,52,14.30
2021,06,24,02,53,14.30
2021,06,24,02,54,14.30
2021,06,24,02,55,14.30
2021,06,24,02,56,14.30
2021,06,24,02,57,14.30
2021,06,24,02,58,14.30
2021,06,24,02,59,14.30
2021,06,24,03,00,14.30
2021,06,24,03,01,14.30
2021,06,24,03,02,14.30
2021,06,24,03,03,14.20
2021,06,24,03,04,14.20
2021,06,24,03,05,14.20
2021,06,24,03,06,14.20
2021,06,24,03,07,14.20
2021,06,24,03,08,14.20
2021,06,24,03,09,14.10
2021,06,24,03,10,14.10
2021,06,24,03,11,14.10
2021,06,24,03,12,14.10
2021,06,24,03,13,14.10
2021,06,24,03,14,14.10
2021,06,24,03,15,14.10
2021,06,24,03,16,14.10
2021,06,24,03,17,14.10
2021,06,24,03,18,14.10
2021,06,24,03,19,14.10
2021,06,24,03,20,14.00
2021,06,24,03,21,14.00
2021,06,24,03,22,14.00
2021,06,24,03,23,14.00
2021,06,24,03,24,14.00
2021,06,24,03,25,14.00
2021,06,24,03,26,14.00
2021,06,24,03,27,14.00
2021,06,24,03,28,14.00
2021,06,24,03,29,13.90
2021,06,24,03,30,13.90
2021,06,24,03,31,13.90
2021,06,24,03,32,13.90
2021,06,24,03,33,13.90
2021,06,24,03,34,13.90
2021,06,24,03,35,13.90
2021,06,24,03,36,13.90
2021,06,24,03,37,13.90
2021,06,24,03,38,13.90
2021,06,24,03,39,13.90
2021,06,24,03,40,13.90
2021,06,24,03,41,13.80
2021,06,24,03,42,13.80
2021,06,24,03,43,13.80
2021,06,24,03,44,13.80
2021,06,24,03,45,13.80
2021,06,24,03,46,13.80
2021,06,24,03,47,13.80
2021,06,24,03,48,13.80
2021,06,24,03,49,13.80
2021,06,24,03,50,13.80
2021,06,24,03,51,13.80
2021,06,24,03,52,13.80
2021,06,24,03,53,13.80
2021,06,24,03,54,13.80
2021,06,24,03,55,13.80
2021,06,24,03,56,13.80
2021,06,24,03,57,13.80
2021,06,24,03,58,13.80
2021,06,24,03,59,13.80
2021,06,24,04,00,13.80
2021,06,24,04,01,13.80
2021,06,24,04,02,13.80
2021,06,24,04,03,13.80
2021,06,24,04,04,13.80
2021,06,24,04,05,13.80
2021,06,24,04,06,13.80
2021,06,24,04,07,13.80
2021,06,24,04,08,13.80
2021,06,24,04,09,13.80
2021,06,24,04,10,13.70
2021,06,24,04,11,13.70
2021,06,24,04,12,13.70
2021,06,24,04,13,13.70
2021,06,24,04,14,13.70
2021,06,24,04,15,13.70
2021,06,24,04,16,13.70
2021,06,24,04,17,13.70
2021,06,24,04,18,13.70
2021,06,24,04,19,13.70
2021,06,24,04,20,13.70
2021,06,24,04,21,13.70
2021,06,24,04,22,13.60
2021,06,24,04,23,13.60
2021,06,24,04,24,13.60
2021,06,24,04,25,13.60
2021,06,24,04,26,13.60
2021,06,24,04,27,13.60
2021,06,24,04,28,13.60
2021,06,24,04,29,13.60
2021,06,24,04,30,13.60
2021,06,24,04,31,13.60
2021,06,24,04,32,13.60
2021,06,24,04,33,13.60
2021,06,24,04,34,13.60
2021,06,24,04,35,13.60
2021,06,24,04,36,13.60
2021,06,24,04,37,13.60
2021,06,24,04,38,13.60
2021,06,24,04,39,13.60
2021,06,24,04,40,13.60
2021,06,24,04,41,13.60
2021,06,24,04,42,13.60
2021,06,24,04,43,13.60
2021,06,24,04,44,13.60
2021,06,24,04,45,13.60
2021,06,24,04,46,13.60
2021,06,24,04,47,13.60
2021,06,24,04,48,13.60
2021,06,24,04,49,13.60
2021,06,24,04,50,13.60
2021,06,24,04,51,13.60
2021,06,24,04,52,13.60
2021,06,24,04,53,13.60
2021,06,24,04,54,13.60
2021,06,24,04,55,13.50
2021,06,24,04,56,13.50
2021,06,24,04,57,13.50
2021,06,24,04,58,13.50
2021,06,24,04,59,13.50
2021,06,24,05,00,13.40
2021,06,24,05,01,13.40
2021,06,24,05,02,13.40
2021,06,24,05,03,13.40
2021,06,24,05,04,13.40
2021,06,24,05,05,13.40
2021,06,24,05,06,13.40
2021,06,24,05,07,13.40
2021,06,24,05,08,13.40
2021,06,24,05,09,13.40
2021,06,24,05,10,13.30
2021,06,24,05,11,13.30
2021,06,24,05,12,13.40
2021,06,24,05,13,13.40
2021,06,24,05,14,13.40
2021,06,24,05,15,13.30
2021,06,24,05,16,13.30
2021,06,24,05,17,13.40
2021,06,24,05,18,13.30
2021,06,24,05,19,13.30
2021,06,24,05,20,13.30
2021,06,24,05,21,13.30
2021,06,24,05,22,13.30
2021,06,24,05,23,13.30
2021,06,24,05,24,13.30
2021,06,24,05,25,13.30
2021,06,24,05,26,13.30
2021,06,24,05,27,13.30
2021,06,24,05,28,13.30
2021,06,24,05,29,13.30
2021,06,24,05,30,13.30
2021,06,24,05,31,13.30
2021,06,24,05,32,13.30
2021,06,24,05,33,13.30
2021,06,24,05,34,13.30
2021,06,24,05,35,13.30
2021,06,24,05,36,13.30
2021,06,24,05,37,13.20
2021,06,24,05,38,13.20
2021,06,24,05,39,13.20
2021,06,24,05,40,13.20
2021,06,24,05,41,13.20
2021,06,24,05,42,13.20
2021,06,24,05,43,13.20
2021,06,24,05,44,13.20
2021,06,24,05,45,13.20
2021,06,24,05,46,13.20
2021,06,24,05,47,13.20
2021,06,24,05,48,13.20
2021,06,24,05,49,13.20
2021,06,24,05,50,13.20
2021,06,24,05,51,13.20
2021,06,24,05,52,13.20
2021,06,24,05,53,13.20
2021,06,24,05,54,13.20
2021,06,24,05,55,13.20
2021,06,24,05,56,13.20
2021,06,24,05,57,13.20
2021,06,24,05,58,13.20
2021,06,24,05,59,13.20
2021,06,24,06,00,13.20
2021,06,24,06,01,13.20
2021,06,24,06,02,13.20
2021,06,24,06,03,13.20
2021,06,24,06,04,13.20
2021,06,24,06,05,13.20
2021,06,24,06,06,13.20
2021,06,24,06,07,13.20
2021,06,24,06,08,13.20
2021,06,24,06,09,13.20
2021,06,24,06,10,13.20
2021,06,24,06,11,13.30
2021,06,24,06,12,13.30
2021,06,24,06,13,13.30
2021,06,24,06,14,13.30
2021,06,24,06,15,13.30
2021,06,24,06,16,13.30
2021,06,24,06,17,13.40
2021,06,24,06,18,13.40
2021,06,24,06,19,13.40
2021,06,24,06,20,13.40
2021,06,24,06,21,13.40
2021,06,24,06,22,13.40
2021,06,24,06,23,13.40
2021,06,24,06,24,13.50
2021,06,24,06,25,13.50
2021,06,24,06,26,13.50
2021,06,24,06,27,13.50
2021,06,24,06,28,13.60
2021,06,24,06,29,13.60
2021,06,24,06,30,13.60
2021,06,24,06,31,13.60
2021,06,24,06,32,13.60
2021,06,24,06,33,13.70
2021,06,24,06,34,13.70
2021,06,24,06,35,13.70
2021,06,24,06,36,13.70
2021,06,24,06,37,13.70
2021,06,24,06,38,13.80
2021,06,24,06,39,13.80
2021,06,24,06,40,13.80
2021,06,24,06,41,13.80
2021,06,24,06,42,13.80
2021,06,24,06,43,13.90
2021,06,24,06,44,13.90
2021,06,24,06,45,13.90
2021,06,24,06,46,13.90
2021,06,24,06,47,14.00
2021,06,24,06,48,14.00
2021,06,24,06,49,14.10
2021,06,24,06,50,14.10
2021,06,24,06,51,14.10
2021,06,24,06,52,14.20
2021,06,24,06,53,14.20
2021,06,24,06,54,14.20
2021,06,24,06,55,14.20
2021,06,24,06,56,14.30
2021,06,24,06,57,14.30
2021,06,24,06,58,14.30
2021,06,24,06,59,14.30
2021,06,24,07,00,14.40
2021,06,24,07,01,14.40
2021,06,24,07,02,14.40
2021,06,24,07,03,14.40
2021,06,24,07,04,14.40
2021,06,24,07,05,14.50
2021,06,24,07,06,14.50
2021,06,24,07,07,14.50
2021,06,24,07,08,14.60
2021,06,24,07,09,14.60
2021,06,24,07,10,14.60
2021,06,24,07,11,14.70
2021,06,24,07,12,14.70
2021,06,24,07,13,14.70
2021,06,24,07,14,14.80
2021,06,24,07,15,14.80
2021,06,24,07,16,14.80
2021,06,24,07,17,14.80
2021,06,24,07,18,14.90
2021,06,24,07,19,14.90
2021,06,24,07,20,14.90
2021,06,24,07,21,14.90
2021,06,24,07,22,14.90
2021,06,24,07,23,15.00
2021,06,24,07,24,15.00
2021,06,24,07,25,15.00
2021,06,24,07,26,15.00
2021,06,24,07,27,15.00
2021,06,24,07,28,15.10
2021,06,24,07,29,15.10
2021,06,24,07,30,15.10
2021,06,24,07,31,15.10
2021,06,24,07,32,15.20
2021,06,24,07,33,15.20
2021,06,24,07,34,15.30
2021,06,24,07,35,15.30
2021,06,24,07,36,15.40
2021,06,24,07,37,15.40
2021,06,24,07,38,15.40
2021,06,24,07,39,15.50
2021,06,24,07,40,15.60
2021,06,24,07,41,15.70
2021,06,24,07,42,15.70
2021,06,24,07,43,15.70
2021,06,24,07,44,15.80
2021,06,24,07,45,15.80
2021,06,24,07,46,15.80
2021,06,24,07,47,15.90
2021,06,24,07,48,16.00
2021,06,24,07,49,16.10
2021,06,24,07,50,16.20
2021,06,24,07,51,16.30
2021,06,24,07,52,16.40
2021,06,24,07,53,16.50
2021,06,24,07,54,16.60
2021,06,24,07,55,16.80
2021,06,24,07,56,16.90
2021,06,24,07,57,17.00
2021,06,24,07,58,17.00
2021,06,24,07,59,17.10
2021,06,24,08,00,17.10
2021,06,24,08,01,17.20
2021,06,24,08,02,17.20
2021,06,24,08,03,17.30
2021,06,24,08,04,17.30
2021,06,24,08,05,17.40
2021,06,24,08,06,17.40
2021,06,24,08,07,17.40
2021,06,24,08,08,17.40
2021,06,24,08,09,17.40
2021,06,24,08,10,17.50
2021,06,24,08,11,17.50
2021,06,24,08,12,17.60
2021,06,24,08,13,17.60
2021,06,24,08,14,17.70
2021,06,24,08,15,17.70
2021,06,24,08,16,17.80
2021,06,24,08,17,17.80
2021,06,24,08,18,17.90
2021,06,24,08,19,17.90
2021,06,24,08,20,18.00
2021,06,24,08,21,18.00
2021,06,24,08,22,18.10
2021,06,24,08,23,18.10
2021,06,24,08,24,18.10
2021,06,24,08,25,18.10
2021,06,24,08,26,18.10
2021,06,24,08,27,18.20
2021,06,24,08,28,18.20
2021,06,24,08,29,18.20
2021,06,24,08,30,18.30
2021,06,24,08,31,18.30
2021,06,24,08,32,18.30
2021,06,24,08,33,18.40
2021,06,24,08,34,18.40
2021,06,24,08,35,18.40
2021,06,24,08,36,18.40
2021,06,24,08,37,18.40
2021,06,24,08,38,18.40
2021,06,24,08,39,18.40
2021,06,24,08,40,18.40
2021,06,24,08,41,18.50
2021,06,24,08,42,18.50
2021,06,24,08,43,18.60
2021,06,24,08,44,18.60
2021,06,24,08,45,18.70
2021,06,24,08,46,18.70
2021,06,24,08,47,18.70
2021,06,24,08,48,18.80
2021,06,24,08,49,18.80
2021,06,24,08,50,18.80
2021,06,24,08,51,18.90
2021,06,24,08,52,19.00
2021,06,24,08,53,19.10
2021,06,24,08,54,19.10
2021,06,24,08,55,19.10
2021,06,24,08,56,19.10
2021,06,24,08,57,19.10
2021,06,24,08,58,19.10
2021,06,24,08,59,19.10
2021,06,24,09,00,19.10
2021,06,24,09,01,19.10
2021,06,24,09,02,19.10
2021,06,24,09,03,19.10
2021,06,24,09,04,19.10
2021,06,24,09,05,19.10
2021,06,24,09,06,19.20
2021,06,24,09,07,19.20
2021,06,24,09,08,19.20
2021,06,24,09,09,19.20
2021,06,24,09,10,19.30
2021,06,24,09,11,19.30
2021,06,24,09,12,19.40
2021,06,24,09,13,19.40
2021,06,24,09,14,19.40
2021,06,24,09,15,19.50
2021,06,24,09,16,19.60
2021,06,24,09,17,19.60
2021,06,24,09,18,19.70
2021,06,24,09,19,19.70
2021,06,24,09,20,19.60
2021,06,24,09,21,19.70
2021,06,24,09,22,19.70
2021,06,24,09,23,19.60
2021,06,24,09,24,19.60
2021,06,24,09,25,19.60
2021,06,24,09,26,19.60
2021,06,24,09,27,19.60
2021,06,24,09,28,19.60
2021,06,24,09,29,19.70
2021,06,24,09,30,19.80
2021,06,24,09,31,19.80
2021,06,24,09,32,19.90
2021,06,24,09,33,19.90
2021,06,24,09,34,19.90
2021,06,24,09,35,19.90
2021,06,24,09,36,20.00
2021,06,24,09,37,20.10
2021,06,24,09,38,20.20
2021,06,24,09,39,20.20
2021,06,24,09,40,20.30
2021,06,24,09,41,20.30
2021,06,24,09,42,20.40
2021,06,24,09,43,20.40
2021,06,24,09,44,20.50
2021,06,24,09,45,20.60
2021,06,24,09,46,20.60
2021,06,24,09,47,20.70
2021,06,24,09,48,20.70
2021,06,24,09,49,20.80
2021,06,24,09,50,20.80
2021,06,24,09,51,20.90
2021,06,24,09,52,21.00
2021,06,24,09,53,21.10
2021,06,24,09,54,21.10
2021,06,24,09,55,21.00
2021,06,24,09,56,21.00
2021,06,24,09,57,20.90
2021,06,24,09,58,20.90
2021,06,24,09,59,20.90
2021,06,24,10,00,20.90
2021,06,24,10,01,21.00
2021,06,24,10,02,21.10
2021,06,24,10,03,21.20
2021,06,24,10,04,21.30
2021,06,24,10,05,21.30
2021,06,24,10,06,21.30
2021,06,24,10,07,21.40
2021,06,24,10,08,21.40
2021,06,24,10,09,21.40
2021,06,24,10,10,21.40
2021,06,24,10,11,21.40
2021,06,24,10,12,21.40
2021,06,24,10,13,21.40
2021,06,24,10,14,21.50
2021,06,24,10,15,21.70
2021,06,24,10,16,21.80
2021,06,24,10,17,22.00
2021,06,24,10,18,22.10
2021,06,24,10,19,22.20
2021,06,24,10,20,22.30
2021,06,24,10,21,22.30
2021,06,24,10,22,22.40
2021,06,24,10,23,22.40
2021,06,24,10,24,22.50
2021,06,24,10,25,22.60
2021,06,24,10,26,22.60
2021,06,24,10,27,22.60
2021,06,24,10,28,22.70
2021,06,24,10,29,22.70
2021,06,24,10,30,22.70
2021,06,24,10,31,22.70
2021,06,24,10,32,22.70
2021,06,24,10,33,22.80
2021,06,24,10,34,22.80
2021,06,24,10,35,22.90
2021,06,24,10,36,22.90
2021,06,24,10,37,23.00
2021,06,24,10,38,22.90
2021,06,24,10,39,22.90
2021,06,24,10,40,22.90
2021,06,24,10,41,22.90
2021,06,24,10,42,22.90
2021,06,24,10,43,22.80
2021,06,24,10,44,22.80
2021,06,24,10,45,22.80
2021,06,24,10,46,22.80
2021,06,24,10,47,22.90
2021,06,24,10,48,22.90
2021,06,24,10,49,22.90
2021,06,24,10,50,22.90
2021,06,24,10,51,22.90
2021,06,24,10,52,22.90
2021,06,24,10,53,22.90
2021,06,24,10,54,23.00
2021,06,24,10,55,23.00
2021,06,24,10,56,23.20
2021,06,24,10,57,23.20
2021,06,24,10,58,23.30
2021,06,24,10,59,23.30
2021,06,24,11,00,23.40
2021,06,24,11,01,23.40
2021,06,24,11,02,23.40
2021,06,24,11,03,23.50
2021,06,24,11,04,23.50
2021,06,24,11,05,23.50
2021,06,24,11,06,23.50
2021,06,24,11,07,23.50
2021,06,24,11,08,23.60
2021,06,24,11,09,23.60
2021,06,24,11,10,23.70
2021,06,24,11,11,23.80
2021,06,24,11,12,23.80
2021,06,24,11,13,23.80
2021,06,24,11,14,23.80
2021,06,24,11,15,23.80
2021,06,24,11,16,23.80
2021,06,24,11,17,23.80
2021,06,24,11,18,23.80
2021,06,24,11,19,23.80
2021,06,24,11,20,23.80
2021,06,24,11,21,23.80
2021,06,24,11,22,23.80
2021,06,24,11,23,23.80
2021,06,24,11,24,23.80
2021,06,24,11,25,23.90
2021,06,24,11,26,23.90
2021,06,24,11,27,24.00
2021,06,24,11,28,24.00
2021,06,24,11,29,24.10
2021,06,24,11,30,24.10
2021,06,24,11,31,24.00
2021,06,24,11,32,24.00
2021,06,24,11,33,23.90
2021,06,24,11,34,24.00
2021,06,24,11,35,24.00
2021,06,24,11,36,24.10
2021,06,24,11,37,24.10
2021,06,24,11,38,24.10
2021,06,24,11,39,24.10
2021,06,24,11,40,24.10
2021,06,24,11,41,24.20
2021,06,24,11,42,24.20
2021,06,24,11,43,24.20
2021,06,24,11,44,24.30
2021,06,24,11,45,24.30
2021,06,24,11,46,24.30
2021,06,24,11,47,24.30
2021,06,24,11,48,24.30
2021,06,24,11,49,24.40
2021,06,24,11,50,24.40
2021,06,24,11,51,24.50
2021,06,24,11,52,24.50
2021,06,24,11,53,24.60
2021,06,24,11,54,24.70
2021,06,24,11,55,24.80
2021,06,24,11,56,24.80
2021,06,24,11,57,24.90
2021,06,24,11,58,25.00
2021,06,24,11,59,25.10
2021,06,24,12,00,25.20
2021,06,24,12,01,25.30
2021,06,24,12,02,25.40
2021,06,24,12,03,25.50
2021,06,24,12,04,25.60
2021,06,24,12,05,25.70
2021,06,24,12,06,25.80
2021,06,24,12,07,25.80
2021,06,24,12,08,25.70
2021,06,24,12,09,25.70
2021,06,24,12,10,25.60
2021,06,24,12,11,25.60
2021,06,24,12,12,25.60
2021,06,24,12,13,25.60
2021,06,24,12,14,25.70
2021,06,24,12,15,25.70
2021,06,24,12,16,25.70
2021,06,24,12,17,25.60
2021,06,24,12,18,25.60
2021,06,24,12,19,25.70
2021,06,24,12,20,25.70
2021,06,24,12,21,25.70
2021,06,24,12,22,25.70
2021,06,24,12,23,25.70
2021,06,24,12,24,25.80
2021,06,24,12,25,25.80
2021,06,24,12,26,25.80
2021,06,24,12,27,25.80
2021,06,24,12,28,25.90
2021,06,24,12,29,25.90
2021,06,24,12,30,25.90
2021,06,24,12,31,25.80
2021,06,24,12,32,25.80
2021,06,24,12,33,25.80
2021,06,24,12,34,25.80
2021,06,24,12,35,25.80
2021,06,24,12,36,25.80
2021,06,24,12,37,25.80
2021,06,24,12,38,25.80
2021,06,24,12,39,25.80
2021,06,24,12,40,25.80
2021,06,24,12,41,25.80
2021,06,24,12,42,25.80
2021,06,24,12,43,25.80
2021,06,24,12,44,25.90
2021,06,24,12,45,26.00
2021,06,24,12,46,26.00
2021,06,24,12,47,26.00
2021,06,24,12,48,26.10
2021,06,24,12,49,26.10
2021,06,24,12,50,26.10
2021,06,24,12,51,26.10
2021,06,24,12,52,26.10
2021,06,24,12,53,26.10
2021,06,24,12,54,26.20
2021,06,24,12,55,26.20
2021,06,24,12,56,26.20
2021,06,24,12,57,26.20
2021,06,24,12,58,26.20
2021,06,24,12,59,26.20
2021,06,24,13,00,26.20
2021,06,24,13,01,26.20
2021,06,24,13,02,26.20
2021,06,24,13,03,26.20
2021,06,24,13,04,26.30
2021,06,24,13,05,26.30
2021,06,24,13,06,26.30
2021,06,24,13,07,26.30
2021,06,24,13,08,26.30
2021,06,24,13,09,26.40
2021,06,24,13,10,26.50
2021,06,24,13,11,26.60
2021,06,24,13,12,26.60
2021,06,24,13,13,26.70
2021,06,24,13,14,26.70
2021,06,24,13,15,26.80
2021,06,24,13,16,26.90
2021,06,24,13,17,26.90
2021,06,24,13,18,27.00
2021,06,24,13,19,27.10
2021,06,24,13,20,27.10
2021,06,24,13,21,27.10
2021,06,24,13,22,27.20
2021,06,24,13,23,27.20
2021,06,24,13,24,27.30
2021,06,24,13,25,27.40
2021,06,24,13,26,27.50
2021,06,24,13,27,27.60
2021,06,24,13,28,27.60
2021,06,24,13,29,27.70
2021,06,24,13,30,27.70
2021,06,24,13,31,27.70
2021,06,24,13,32,27.80
2021,06,24,13,33,27.80
2021,06,24,13,34,27.80
2021,06,24,13,35,27.80
2021,06,24,13,36,27.80
2021,06,24,13,37,27.80
2021,06,24,13,38,27.90
2021,06,24,13,39,28.00
2021,06,24,13,40,28.00
2021,06,24,13,41,28.10
2021,06,24,13,42,28.10
2021,06,24,13,43,28.20
2021,06,24,13,44,28.20
2021,06,24,13,45,28.20
2021,06,24,13,46,28.20
2021,06,24,13,47,28.30
2021,06,24,13,48,28.40
2021,06,24,13,49,28.50
2021,06,24,13,50,28.60
2021,06,24,13,51,28.60
2021,06,24,13,52,28.70
2021,06,24,13,53,28.70
2021,06,24,13,54,28.60
2021,06,24,13,55,28.60
2021,06,24,13,56,28.70
2021,06,24,13,57,28.70
2021,06,24,13,58,28.70
2021,06,24,13,59,28.70
2021,06,24,14,00,28.80
2021,06,24,14,01,28.90
2021,06,24,14,02,29.00
2021,06,24,14,03,29.10
2021,06,24,14,04,29.10
2021,06,24,14,05,29.20
2021,06,24,14,06,29.20
2021,06,24,14,07,29.20
2021,06,24,14,08,29.20
2021,06,24,14,09,29.30
2021,06,24,14,10,29.40
2021,06,24,14,11,29.40
2021,06,24,14,12,29.50
2021,06,24,14,13,29.50
2021,06,24,14,14,29.40
2021,06,24,14,15,29.40
2021,06,24,14,16,29.40
2021,06,24,14,17,29.50
2021,06,24,14,18,29.60
2021,06,24,14,19,29.50
2021,06,24,14,20,29.40
2021,06,24,14,21,29.40
2021,06,24,14,22,29.40
2021,06,24,14,23,29.40
2021,06,24,14,24,29.40
2021,06,24,14,25,29.50
2021,06,24,14,26,29.50
2021,06,24,14,27,29.60
2021,06,24,14,28,29.70
2021,06,24,14,29,29.80
2021,06,24,14,30,30.00
2021,06,24,14,31,30.20
2021,06,24,14,32,30.30
2021,06,24,14,33,30.20
2021,06,24,14,34,30.20
2021,06,24,14,35,30.20
2021,06,24,14,36,30.20
2021,06,24,14,37,30.10
2021,06,24,14,38,30.00
2021,06,24,14,39,29.90
2021,06,24,14,40,29.80
2021,06,24,14,41,29.70
2021,06,24,14,42,29.60
2021,06,24,14,43,29.50
2021,06,24,14,44,29.50
2021,06,24,14,45,29.40
2021,06,24,14,46,29.30
2021,06,24,14,47,29.30
2021,06,24,14,48,29.30
2021,06,24,14,49,29.30
2021,06,24,14,50,29.30
2021,06,24,14,51,29.30
2021,06,24,14,52,29.20
2021,06,24,14,53,29.20
2021,06,24,14,54,29.20
2021,06,24,14,55,29.10
2021,06,24,14,56,29.10
2021,06,24,14,57,29.00
2021,06,24,14,58,28.90
2021,06,24,14,59,28.80
2021,06,24,15,00,28.80
2021,06,24,15,01,28.80
2021,06,24,15,02,28.80
2021,06,24,15,03,28.80
2021,06,24,15,04,28.70
2021,06,24,15,05,28.70
2021,06,24,15,06,28.70
2021,06,24,15,07,28.70
2021,06,24,15,08,28.70
2021,06,24,15,09,28.70
2021,06,24,15,10,28.70
2021,06,24,15,11,28.80
2021,06,24,15,12,28.80
2021,06,24,15,13,28.80
2021,06,24,15,14,28.80
2021,06,24,15,15,28.90
2021,06,24,15,16,28.90
2021,06,24,15,17,29.00
2021,06,24,15,18,29.00
2021,06,24,15,19,29.00
2021,06,24,15,20,29.10
2021,06,24,15,21,29.10
2021,06,24,15,22,29.10
2021,06,24,15,23,29.10
2021,06,24,15,24,29.10
2021,06,24,15,25,29.10
2021,06,24,15,26,29.10
2021,06,24,15,27,29.20
2021,06,24,15,28,29.20
2021,06,24,15,29,29.20
2021,06,24,15,30,29.30
2021,06,24,15,31,29.30
2021,06,24,15,32,29.40
2021,06,24,15,33,29.40
2021,06,24,15,34,29.40
2021,06,24,15,35,29.50
2021,06,24,15,36,29.50
2021,06,24,15,37,29.50
2021,06,24,15,38,29.60
2021,06,24,15,39,29.60
2021,06,24,15,40,29.60
2021,06,24,15,41,29.60
2021,06,24,15,42,29.60
2021,06,24,15,43,29.60
2021,06,24,15,44,29.60
2021,06,24,15,45,29.60
2021,06,24,15,46,29.70
2021,06,24,15,47,29.70
2021,06,24,15,48,29.70
2021,06,24,15,49,29.80
2021,06,24,15,50,29.80
2021,06,24,15,51,29.70
2021,06,24,15,52,29.60
2021,06,24,15,53,29.40
2021,06,24,15,54,29.30
2021,06,24,15,55,29.30
2021,06,24,15,56,29.20
2021,06,24,15,57,29.10
2021,06,24,15,58,29.00
2021,06,24,15,59,28.90
2021,06,24,16,00,28.80
2021,06,24,16,01,28.80
2021,06,24,16,02,28.70
2021,06,24,16,03,28.70
2021,06,24,16,04,28.70
2021,06,24,16,05,28.70
2021,06,24,16,06,28.70
2021,06,24,16,07,28.70
2021,06,24,16,08,28.70
2021,06,24,16,09,28.80
2021,06,24,16,10,28.80
2021,06,24,16,11,28.80
2021,06,24,16,12,28.90
2021,06,24,16,13,29.00
2021,06,24,16,14,29.10
2021,06,24,16,15,29.20
2021,06,24,16,16,29.30
2021,06,24,16,17,29.50
2021,06,24,16,18,29.60
2021,06,24,16,19,29.70
2021,06,24,16,20,29.90
2021,06,24,16,21,29.90
2021,06,24,16,22,30.00
2021,06,24,16,23,30.10
2021,06,24,16,24,30.20
2021,06,24,16,25,30.30
2021,06,24,16,26,30.30
2021,06,24,16,27,30.30
2021,06,24,16,28,30.30
2021,06,24,16,29,30.30
2021,06,24,16,30,30.30
2021,06,24,16,31,30.30
2021,06,24,16,32,30.30
2021,06,24,16,33,30.20
2021,06,24,16,34,30.20
2021,06,24,16,35,30.20
2021,06,24,16,36,30.20
2021,06,24,16,37,30.10
2021,06,24,16,38,30.10
2021,06,24,16,39,30.10
2021,06,24,16,40,30.10
2021,06,24,16,41,30.10
2021,06,24,16,42,30.20
2021,06,24,16,43,30.20
2021,06,24,16,44,30.20
2021,06,24,16,45,30.10
2021,06,24,16,46,30.20
2021,06,24,16,47,30.10
2021,06,24,16,48,30.10
2021,06,24,16,49,30.00
2021,06,24,16,50,29.90
2021,06,24,16,51,29.80
2021,06,24,16,52,29.80
2021,06,24,16,53,29.70
2021,06,24,16,54,29.70
2021,06,24,16,55,29.70
2021,06,24,16,56,29.60
2021,06,24,16,57,29.60
2021,06,24,16,58,29.60
2021,06,24,16,59,29.60
2021,06,24,17,00,29.60
2021,06,24,17,01,29.60
2021,06,24,17,02,29.60
2021,06,24,17,03,29.60
2021,06,24,17,04,29.60
2021,06,24,17,05,29.60
2021,06,24,17,06,29.60
2021,06,24,17,07,29.60
2021,06,24,17,08,29.70
2021,06,24,17,09,29.70
2021,06,24,17,10,29.70
2021,06,24,17,11,29.70
2021,06,24,17,12,29.70
2021,06,24,17,13,29.70
2021,06,24,17,14,29.70
2021,06,24,17,15,29.70
2021,06,24,17,16,29.70
2021,06,24,17,17,29.70
2021,06,24,17,18,29.70
2021,06,24,17,19,29.70